STARLINK-32456, 62041

Orbit data source: Space-Track

STARLINK-32456, 62041 is a payload satellite owned by SpaceX/Seattle (US) in LEO that was launched on Thu, 21 Nov 2024 UTC via an FALCON 9 launch vehicle from the Air Force Eastern Test Range (AFETR). Payload-class satellites include a variety of spacecraft equipped with specific instruments for various scientific and technological missions. These include communications satellites like Starlink; space stations such as the ISS; scientific satellites like the Hubble; Earth observation satellites from companies like Planet Labs, Umbra, and HawkEye 360; GPS; miniature CubeSats for education and research; and military/defense satellites.

Loading next visibility...
Identifier
62041, 2024-216K
Orbit
LEO
Last TLE update
7 hours ago
Origin
Manufacturer
SpaceX/Seattle
Mission
Operational Commercial Communications
Bus & Motor
STARLINK V2M, Unknown motor
Mass
730 kg wet, ~700 kg dry
Launch date (UTC)
2024-11-21 (8 months ago)
Launch vehicle
FALCON 9
Launch site
Air Force Eastern Test Range (AFETR)
Object type
Payload
Rocket body
Debris
Shape & HBR
Box + 2 Pan, 14.5 m
Radar Cross Section
36.964 m², Large (>1 m²)

Expand to show TLE details & history

TLE from 7 hours ago
0 STARLINK-32456
1 62041U 24216K   25200.20069820  .00024896  00000-0  91149-3 0  9990
2 62041  42.9971 135.2003 0000723 238.3974 121.6807 15.27568252 37984
Epoch: 2025-07-19T04:49Z
TLE epoch observation values (Epoch: 2025-07-19T04:49:00.324Z)
Latitude
-0.00002°
Longitude
125.70771°
Altitude
483.12 km
Speed
7.626 km/s
True Right ascension
09h 00m 48s
True Declination
0° 00' 00"
Sunlit
Object was in daylight at epoch
Visualization orbit readout
Latitude
-32.96738°
Longitude
-12.23839°
Altitude
491.73 km
Speed
7.62 km/s
Apparent Right ascension
20h 18m 22s
Apparent Declination
-77° 08' 15"
Sunlit
Object is in full shadow
Visualization observer readout
Local Sidereal Time
00:56:07
Azimuth
194.64° SSW
Elevation
-34.444°
Doppler factor
1
Orbital elements
Apogee altitude
485.526 km
Perigee altitude
484.534 km
Semi-major axis
6,863.167 km
Eccentricity
0.00007
Inclination
42.9971°
RAAN
135.2003°
Arg. of periapsis
238.3974°
True anomaly
121.68775°
Mean anomaly
121.6807°
Eccentric anomaly
121.68423°
Mean motion
3.8173 °/min
Orbital period
94.31 mins
BSTAR
0.00091149
Loading maneuver chart data...
Loading SW <> Apogee altitude chart data...
Loading historical data...
Loading historical data...
Loading historical data...
Loading historical data...
Loading historical data...
Loading historical data...
Loading historical data...
|